ANA585 RJTT-RJOM

Flight info

Callsign ANA585
Flight time 1h 6m
Altitude 26000
Route NINOX Y28 BAMBO Y283 ITUKI
Aircraft B772/H-Q/LB1D1

Departure

Time 2026-05-05 01:17
Airport Tokyo Haneda International Airport (RJTT)

Arrival

Time 2026-05-05 02:23
Airport Matsuyama Airport (RJOM)
Time Latitude Longitude Altitude Speed Heading
2026-05-05 00:39 35.55554 139.78741 32 ft 0 kts 160°
2026-05-05 00:59 35.55555 139.78741 32 ft 2 kts 160°
2026-05-05 00:59 35.55575 139.78726 28 ft 4 kts 131°
2026-05-05 00:59 35.55590 139.78710 28 ft 4 kts 152°
2026-05-05 00:59 35.55616 139.78702 29 ft 4 kts 181°
2026-05-05 01:00 35.55639 139.78700 29 ft 1 kts 163°
2026-05-05 01:00 35.55661 139.78690 29 ft 4 kts 156°
2026-05-05 01:00 35.55686 139.78676 28 ft 4 kts 150°
2026-05-05 01:00 35.55696 139.78668 26 ft 0 kts 149°
2026-05-05 01:03 35.55695 139.78668 26 ft 1 kts 149°
2026-05-05 01:04 35.55668 139.78693 29 ft 6 kts 132°
2026-05-05 01:04 35.55668 139.78787 30 ft 6 kts 64°
2026-05-05 01:04 35.55691 139.78845 28 ft 8 kts 66°
2026-05-05 01:05 35.55684 139.78915 29 ft 8 kts 124°
2026-05-05 01:05 35.55633 139.78952 30 ft 9 kts 153°
2026-05-05 01:05 35.55581 139.78988 30 ft 9 kts 150°
2026-05-05 01:05 35.55529 139.79025 30 ft 9 kts 150°
2026-05-05 01:06 35.55477 139.79061 30 ft 9 kts 150°
2026-05-05 01:06 35.55426 139.79098 31 ft 9 kts 150°
2026-05-05 01:06 35.55375 139.79134 31 ft 9 kts 149°
2026-05-05 01:06 35.55308 139.79183 31 ft 13 kts 149°
2026-05-05 01:07 35.55227 139.79240 31 ft 13 kts 149°
2026-05-05 01:07 35.55147 139.79298 29 ft 13 kts 149°
2026-05-05 01:07 35.55067 139.79355 30 ft 13 kts 149°
2026-05-05 01:07 35.54986 139.79411 31 ft 13 kts 152°
2026-05-05 01:08 35.54906 139.79466 31 ft 13 kts 150°
2026-05-05 01:08 35.54825 139.79523 32 ft 13 kts 150°
2026-05-05 01:08 35.54741 139.79582 30 ft 14 kts 150°
2026-05-05 01:08 35.54653 139.79645 28 ft 15 kts 149°
2026-05-05 01:09 35.54564 139.79710 28 ft 15 kts 149°
2026-05-05 01:09 35.54476 139.79775 26 ft 15 kts 149°
2026-05-05 01:09 35.54386 139.79837 28 ft 15 kts 150°
2026-05-05 01:09 35.54297 139.79899 26 ft 15 kts 149°
2026-05-05 01:10 35.54208 139.79963 25 ft 15 kts 149°
2026-05-05 01:10 35.54121 139.80027 31 ft 15 kts 149°
2026-05-05 01:10 35.54030 139.80093 25 ft 15 kts 149°
2026-05-05 01:10 35.53953 139.80144 26 ft 11 kts 152°
2026-05-05 01:11 35.53860 139.80192 31 ft 15 kts 178°
2026-05-05 01:11 35.53756 139.80180 28 ft 15 kts 175°
2026-05-05 01:11 35.53653 139.80200 29 ft 15 kts 159°
2026-05-05 01:11 35.53560 139.80259 33 ft 15 kts 151°
2026-05-05 01:12 35.53468 139.80322 37 ft 15 kts 149°
2026-05-05 01:12 35.53377 139.80388 41 ft 15 kts 149°
2026-05-05 01:12 35.53287 139.80454 45 ft 15 kts 150°
2026-05-05 01:12 35.53196 139.80517 48 ft 15 kts 150°
2026-05-05 01:13 35.53106 139.80582 46 ft 15 kts 150°
2026-05-05 01:13 35.53029 139.80595 48 ft 19 kts 201°
2026-05-05 01:13 35.52912 139.80471 49 ft 22 kts 223°
2026-05-05 01:13 35.52797 139.80342 48 ft 22 kts 221°
2026-05-05 01:14 35.52682 139.80212 47 ft 22 kts 223°
2026-05-05 01:14 35.52605 139.80148 50 ft 13 kts 188°
2026-05-05 01:14 35.52553 139.80176 49 ft 7 kts 139°
2026-05-05 01:14 35.52514 139.80219 48 ft 8 kts 139°
2026-05-05 01:15 35.52495 139.80244 49 ft 3 kts 131°
2026-05-05 01:15 35.52480 139.80266 50 ft 4 kts 131°
2026-05-05 01:15 35.52460 139.80294 47 ft 6 kts 130°
2026-05-05 01:15 35.52438 139.80341 52 ft 6 kts 107°
2026-05-05 01:16 35.52451 139.80393 50 ft 7 kts 57°
2026-05-05 01:16 35.52482 139.80435 50 ft 7 kts 45°
2026-05-05 01:16 35.52528 139.80491 50 ft 21 kts 43°
2026-05-05 01:16 35.52838 139.80833 47 ft 109 kts 42°
2026-05-05 01:17 35.53552 139.81677 523 ft 153 kts 40°
2026-05-05 01:17 35.54348 139.82575 1829 ft 157 kts 38°
2026-05-05 01:17 35.55159 139.83472 2781 ft 163 kts 38°
2026-05-05 01:17 35.56051 139.84486 3020 ft 190 kts 45°
2026-05-05 01:18 35.56536 139.86117 3192 ft 227 kts 88°
2026-05-05 01:18 35.56098 139.88102 3402 ft 254 kts 110°
2026-05-05 01:18 35.55465 139.90227 3915 ft 271 kts 107°
2026-05-05 01:18 35.54799 139.92426 4634 ft 278 kts 116°
2026-05-05 01:19 35.53494 139.94178 5490 ft 282 kts 149°
2026-05-05 01:19 35.51642 139.94894 6465 ft 280 kts 180°
2026-05-05 01:19 35.49711 139.94620 7155 ft 281 kts 193°
2026-05-05 01:19 35.47782 139.94099 7829 ft 284 kts 201°
2026-05-05 01:20 35.46124 139.92865 8506 ft 284 kts 231°
2026-05-05 01:20 35.45177 139.90795 9449 ft 277 kts 257°
2026-05-05 01:20 35.44780 139.88491 10286 ft 279 kts 264°
2026-05-05 01:20 35.44460 139.86048 10601 ft 303 kts 265°
2026-05-05 01:21 35.44122 139.83374 10824 ft 332 kts 264°
2026-05-05 01:21 35.43749 139.80512 11481 ft 344 kts 264°
2026-05-05 01:21 35.43355 139.77588 12415 ft 351 kts 265°
2026-05-05 01:21 35.42951 139.74622 13520 ft 351 kts 266°
2026-05-05 01:22 35.42856 139.71659 14313 ft 349 kts 283°
2026-05-05 01:22 35.43522 139.68855 15062 ft 348 kts 292°
2026-05-05 01:22 35.44311 139.66016 15946 ft 353 kts 291°
2026-05-05 01:22 35.45073 139.63142 16995 ft 355 kts 290°
2026-05-05 01:23 35.45829 139.60252 18005 ft 357 kts 290°
2026-05-05 01:23 35.46590 139.57333 18850 ft 362 kts 290°
2026-05-05 01:23 35.47357 139.54383 19675 ft 364 kts 289°
2026-05-05 01:23 35.48129 139.51408 20493 ft 367 kts 288°
2026-05-05 01:24 35.48674 139.48336 21167 ft 372 kts 277°
2026-05-05 01:24 35.48796 139.45142 21917 ft 377 kts 273°
2026-05-05 01:24 35.48870 139.41914 22760 ft 379 kts 272°
2026-05-05 01:24 35.48960 139.38672 23558 ft 382 kts 272°
2026-05-05 01:25 35.49068 139.35399 24211 ft 385 kts 272°
2026-05-05 01:25 35.49188 139.32143 24812 ft 388 kts 271°
2026-05-05 01:25 35.49316 139.28825 25409 ft 390 kts 271°
2026-05-05 01:25 35.49448 139.25510 26045 ft 389 kts 270°
2026-05-05 01:26 35.49578 139.22248 26204 ft 379 kts 270°
2026-05-05 01:26 35.49699 139.18990 26180 ft 384 kts 270°
2026-05-05 01:26 35.49815 139.15704 26204 ft 386 kts 268°
2026-05-05 01:26 35.49755 139.12420 26200 ft 384 kts 265°
2026-05-05 01:27 35.49579 139.09153 26180 ft 384 kts 264°
2026-05-05 01:27 35.49375 139.05885 26174 ft 383 kts 264°
2026-05-05 01:27 35.49178 139.02619 26170 ft 383 kts 264°
2026-05-05 01:27 35.48995 138.99353 26184 ft 383 kts 264°
2026-05-05 01:28 35.48879 138.97195 26181 ft 383 kts 264°
2026-05-05 01:28 35.48713 138.93931 26175 ft 383 kts 265°
2026-05-05 01:28 35.48553 138.90655 26187 ft 385 kts 265°
2026-05-05 01:28 35.48390 138.87376 26176 ft 385 kts 265°
2026-05-05 01:29 35.48228 138.84098 26208 ft 386 kts 265°
2026-05-05 01:29 35.48061 138.80794 26186 ft 387 kts 265°
2026-05-05 01:29 35.47895 138.77496 26179 ft 387 kts 265°
2026-05-05 01:29 35.47729 138.74197 26184 ft 387 kts 265°
2026-05-05 01:30 35.47564 138.70941 26183 ft 387 kts 265°
2026-05-05 01:30 35.47397 138.67655 26179 ft 386 kts 265°
2026-05-05 01:30 35.47228 138.64364 26166 ft 386 kts 265°
2026-05-05 01:30 35.47058 138.61073 26179 ft 386 kts 265°
2026-05-05 01:31 35.46887 138.57783 26180 ft 386 kts 265°
2026-05-05 01:31 35.46716 138.54501 26184 ft 386 kts 265°
2026-05-05 01:31 35.46542 138.51205 26185 ft 386 kts 265°
2026-05-05 01:31 35.46370 138.47915 26177 ft 387 kts 265°
2026-05-05 01:32 35.46197 138.44624 26181 ft 387 kts 265°
2026-05-05 01:32 35.46023 138.41323 26166 ft 386 kts 265°
2026-05-05 01:32 35.45847 138.38033 26152 ft 386 kts 265°
2026-05-05 01:32 35.45670 138.34787 26181 ft 387 kts 265°
2026-05-05 01:33 35.45496 138.31489 26188 ft 385 kts 265°
2026-05-05 01:33 35.45320 138.28215 26199 ft 384 kts 265°
2026-05-05 01:33 35.45140 138.24936 26184 ft 385 kts 265°
2026-05-05 01:33 35.44960 138.21650 26176 ft 388 kts 265°
2026-05-05 01:34 35.44784 138.18376 26181 ft 389 kts 265°
2026-05-05 01:34 35.44597 138.15058 26177 ft 390 kts 265°
2026-05-05 01:34 35.44402 138.11740 26175 ft 391 kts 265°
2026-05-05 01:34 35.44204 138.08411 26174 ft 392 kts 264°
2026-05-05 01:35 35.44008 138.05085 26170 ft 391 kts 265°
2026-05-05 01:35 35.43812 138.01771 26197 ft 388 kts 264°
2026-05-05 01:35 35.43616 137.98468 26169 ft 388 kts 265°
2026-05-05 01:35 35.43414 137.95171 26168 ft 386 kts 264°
2026-05-05 01:36 35.43218 137.91883 26185 ft 387 kts 265°
2026-05-05 01:36 35.43023 137.88581 26183 ft 389 kts 264°
2026-05-05 01:36 35.42824 137.85273 26183 ft 390 kts 264°
2026-05-05 01:36 35.42623 137.81956 26185 ft 390 kts 264°
2026-05-05 01:37 35.42420 137.78633 26182 ft 391 kts 264°
2026-05-05 01:37 35.42200 137.75299 26186 ft 391 kts 264°
2026-05-05 01:37 35.41958 137.72009 26186 ft 391 kts 264°
2026-05-05 01:37 35.41709 137.68690 26184 ft 391 kts 264°
2026-05-05 01:38 35.41464 137.65367 26184 ft 391 kts 264°
2026-05-05 01:38 35.41221 137.62051 26191 ft 390 kts 264°
2026-05-05 01:38 35.40975 137.58737 26191 ft 391 kts 263°
2026-05-05 01:38 35.40579 137.55437 26185 ft 391 kts 259°
2026-05-05 01:39 35.39941 137.52192 26185 ft 392 kts 255°
2026-05-05 01:39 35.39220 137.48972 26197 ft 392 kts 255°
2026-05-05 01:39 35.38505 137.45738 26187 ft 393 kts 255°
2026-05-05 01:39 35.37796 137.42503 26190 ft 393 kts 256°
2026-05-05 01:40 35.37089 137.39272 26191 ft 393 kts 256°
2026-05-05 01:40 35.36385 137.36042 26187 ft 392 kts 256°
2026-05-05 01:40 35.35679 137.32812 26194 ft 392 kts 256°
2026-05-05 01:40 35.34972 137.29580 26206 ft 393 kts 255°
2026-05-05 01:41 35.34263 137.26346 26197 ft 393 kts 256°
2026-05-05 01:41 35.33553 137.23109 26196 ft 393 kts 255°
2026-05-05 01:41 35.32850 137.19913 26202 ft 393 kts 255°
2026-05-05 01:41 35.32140 137.16684 26201 ft 393 kts 255°
2026-05-05 01:42 35.31429 137.13459 26197 ft 393 kts 255°
2026-05-05 01:42 35.30715 137.10227 26206 ft 393 kts 255°
2026-05-05 01:42 35.29990 137.06983 26216 ft 393 kts 255°
2026-05-05 01:42 35.29261 137.03753 26209 ft 395 kts 255°
2026-05-05 01:43 35.28532 137.00505 26205 ft 396 kts 255°
2026-05-05 01:43 35.27800 136.97253 26204 ft 397 kts 255°
2026-05-05 01:43 35.27063 136.93990 26202 ft 398 kts 255°
2026-05-05 01:43 35.26324 136.90723 26201 ft 398 kts 255°
2026-05-05 01:44 35.25602 136.87507 26198 ft 398 kts 255°
2026-05-05 01:44 35.24860 136.84191 26200 ft 398 kts 255°
2026-05-05 01:44 35.24131 136.80932 26197 ft 398 kts 255°
2026-05-05 01:44 35.23411 136.77713 26199 ft 397 kts 255°
2026-05-05 01:45 35.22680 136.74453 26195 ft 397 kts 255°
2026-05-05 01:45 35.21949 136.71197 26198 ft 396 kts 255°
2026-05-05 01:45 35.21217 136.67947 26202 ft 396 kts 255°
2026-05-05 01:45 35.20486 136.64702 26203 ft 396 kts 255°
2026-05-05 01:46 35.19753 136.61453 26199 ft 396 kts 255°
2026-05-05 01:46 35.19020 136.58207 26204 ft 396 kts 255°
2026-05-05 01:46 35.18285 136.54960 26192 ft 396 kts 255°
2026-05-05 01:46 35.17550 136.51713 26196 ft 396 kts 255°
2026-05-05 01:47 35.16814 136.48472 26199 ft 396 kts 255°
2026-05-05 01:47 35.16081 136.45240 26173 ft 393 kts 255°
2026-05-05 01:47 35.15359 136.42059 26194 ft 394 kts 255°
2026-05-05 01:47 35.14619 136.38832 26202 ft 395 kts 255°
2026-05-05 01:48 35.13882 136.35590 26199 ft 396 kts 255°
2026-05-05 01:48 35.13144 136.32347 26200 ft 397 kts 255°
2026-05-05 01:48 35.12400 136.29097 26209 ft 397 kts 255°
2026-05-05 01:48 35.11656 136.25850 26211 ft 398 kts 255°
2026-05-05 01:49 35.10908 136.22586 26207 ft 399 kts 255°
2026-05-05 01:49 35.10158 136.19313 26210 ft 400 kts 255°
2026-05-05 01:49 35.09407 136.16040 26206 ft 400 kts 255°
2026-05-05 01:49 35.08655 136.12768 26210 ft 400 kts 255°
2026-05-05 01:50 35.07902 136.09493 26207 ft 400 kts 255°
2026-05-05 01:50 35.07151 136.06227 26212 ft 400 kts 255°
2026-05-05 01:50 35.06406 136.02994 26211 ft 400 kts 255°
2026-05-05 01:50 35.05653 135.99729 26210 ft 400 kts 255°
2026-05-05 01:51 35.04901 135.96466 26207 ft 399 kts 255°
2026-05-05 01:51 35.04148 135.93199 26207 ft 399 kts 255°
2026-05-05 01:51 35.03396 135.89939 26211 ft 400 kts 255°
2026-05-05 01:51 35.02641 135.86671 26209 ft 400 kts 255°
2026-05-05 01:52 35.01888 135.83411 26210 ft 400 kts 255°
2026-05-05 01:52 35.01218 135.80121 26221 ft 399 kts 257°
2026-05-05 01:52 35.00608 135.76810 26205 ft 400 kts 258°
2026-05-05 01:52 35.00007 135.73501 26209 ft 399 kts 258°
2026-05-05 01:53 34.99405 135.70189 26212 ft 399 kts 258°
2026-05-05 01:53 34.98802 135.66888 26208 ft 398 kts 257°
2026-05-05 01:53 34.98195 135.63586 26209 ft 398 kts 257°
2026-05-05 01:53 34.97596 135.60339 26215 ft 398 kts 257°
2026-05-05 01:54 34.96985 135.57049 26205 ft 398 kts 257°
2026-05-05 01:54 34.96374 135.53757 26215 ft 398 kts 257°
2026-05-05 01:54 34.95763 135.50470 26226 ft 398 kts 257°
2026-05-05 01:54 34.95149 135.47173 26219 ft 400 kts 257°
2026-05-05 01:55 34.94531 135.43856 26221 ft 401 kts 257°
2026-05-05 01:55 34.93911 135.40538 26210 ft 402 kts 257°
2026-05-05 01:55 34.93287 135.37203 26207 ft 402 kts 257°
2026-05-05 01:55 34.92657 135.33883 26211 ft 402 kts 257°
2026-05-05 01:56 34.92011 135.30576 26218 ft 401 kts 257°
2026-05-05 01:56 34.91361 135.27274 26214 ft 401 kts 257°
2026-05-05 01:56 34.90719 135.24018 26223 ft 400 kts 257°
2026-05-05 01:56 34.90068 135.20718 26221 ft 400 kts 257°
2026-05-05 01:57 34.89418 135.17418 26215 ft 400 kts 257°
2026-05-05 01:57 34.88770 135.14129 26234 ft 400 kts 257°
2026-05-05 01:57 34.88118 135.10822 26230 ft 400 kts 257°
2026-05-05 01:57 34.87469 135.07532 26226 ft 400 kts 257°
2026-05-05 01:58 34.86819 135.04240 26228 ft 400 kts 257°
2026-05-05 01:58 34.86166 135.00945 26230 ft 400 kts 257°
2026-05-05 01:58 34.85520 134.97653 26226 ft 400 kts 257°
2026-05-05 01:58 34.84892 134.94334 26229 ft 401 kts 257°
2026-05-05 01:59 34.84272 134.91017 26230 ft 402 kts 257°
2026-05-05 01:59 34.83661 134.87744 26227 ft 402 kts 257°
2026-05-05 01:59 34.83038 134.84422 26234 ft 403 kts 257°
2026-05-05 01:59 34.82411 134.81097 26233 ft 403 kts 257°
2026-05-05 02:00 34.81783 134.77774 26227 ft 403 kts 257°
2026-05-05 02:00 34.81152 134.74445 26233 ft 402 kts 257°
2026-05-05 02:00 34.80525 134.71138 26240 ft 401 kts 257°
2026-05-05 02:00 34.79898 134.67834 26234 ft 400 kts 257°
2026-05-05 02:01 34.79269 134.64540 26232 ft 399 kts 257°
2026-05-05 02:01 34.78638 134.61254 26246 ft 399 kts 257°
2026-05-05 02:01 34.78005 134.57967 26242 ft 400 kts 257°
2026-05-05 02:01 34.77367 134.54663 26243 ft 401 kts 257°
2026-05-05 02:02 34.76729 134.51357 26241 ft 402 kts 257°
2026-05-05 02:02 34.76097 134.48084 26240 ft 401 kts 257°
2026-05-05 02:02 34.75458 134.44786 26247 ft 401 kts 257°
2026-05-05 02:02 34.74823 134.41483 26243 ft 400 kts 257°
2026-05-05 02:03 34.74192 134.38177 26230 ft 401 kts 257°
2026-05-05 02:03 34.73563 134.34876 26231 ft 401 kts 257°
2026-05-05 02:03 34.72932 134.31572 26237 ft 401 kts 257°
2026-05-05 02:03 34.72300 134.28268 26239 ft 401 kts 257°
2026-05-05 02:04 34.71666 134.24963 26239 ft 401 kts 257°
2026-05-05 02:04 34.71029 134.21657 26228 ft 401 kts 257°
2026-05-05 02:04 34.70390 134.18358 26233 ft 401 kts 256°
2026-05-05 02:04 34.69750 134.15064 26240 ft 401 kts 256°
2026-05-05 02:05 34.69107 134.11770 26227 ft 400 kts 256°
2026-05-05 02:05 34.68475 134.08532 26236 ft 400 kts 256°
2026-05-05 02:05 34.67830 134.05229 26215 ft 400 kts 256°
2026-05-05 02:05 34.67167 134.01949 26222 ft 400 kts 255°
2026-05-05 02:06 34.66299 133.98735 26214 ft 402 kts 250°
2026-05-05 02:06 34.65300 133.95557 26214 ft 403 kts 250°
2026-05-05 02:06 34.64309 133.92369 26216 ft 403 kts 250°
2026-05-05 02:06 34.63327 133.89182 26207 ft 402 kts 250°
2026-05-05 02:07 34.62350 133.86006 26212 ft 402 kts 250°
2026-05-05 02:07 34.61374 133.82828 26225 ft 401 kts 250°
2026-05-05 02:07 34.60398 133.79653 26216 ft 402 kts 250°
2026-05-05 02:07 34.59416 133.76459 26221 ft 403 kts 250°
2026-05-05 02:08 34.58447 133.73315 26215 ft 404 kts 250°
2026-05-05 02:08 34.57462 133.70118 26205 ft 404 kts 250°
2026-05-05 02:08 34.56477 133.66926 26215 ft 402 kts 250°
2026-05-05 02:08 34.55496 133.63753 26216 ft 401 kts 250°
2026-05-05 02:09 34.54514 133.60593 26223 ft 401 kts 249°
2026-05-05 02:09 34.53494 133.57444 26216 ft 401 kts 249°
2026-05-05 02:09 34.52455 133.54305 26227 ft 401 kts 249°
2026-05-05 02:09 34.51412 133.51163 26231 ft 402 kts 249°
2026-05-05 02:10 34.50368 133.48009 26216 ft 402 kts 249°
2026-05-05 02:10 34.49336 133.44880 26197 ft 395 kts 249°
2026-05-05 02:10 34.48336 133.41847 26016 ft 382 kts 249°
2026-05-05 02:10 34.47360 133.38891 25368 ft 382 kts 249°
2026-05-05 02:11 34.46388 133.35887 24727 ft 387 kts 249°
2026-05-05 02:11 34.45410 133.32775 24012 ft 402 kts 250°
2026-05-05 02:11 34.44415 133.29591 23155 ft 405 kts 250°
2026-05-05 02:11 34.43415 133.26400 22339 ft 403 kts 249°
2026-05-05 02:12 34.42417 133.23230 21564 ft 401 kts 249°
2026-05-05 02:12 34.40428 133.16943 20081 ft 399 kts 248°
2026-05-05 02:12 34.39429 133.13805 19368 ft 399 kts 248°
2026-05-05 02:13 34.38429 133.10670 18643 ft 400 kts 248°
2026-05-05 02:13 34.37424 133.07526 17819 ft 401 kts 248°
2026-05-05 02:13 34.36419 133.04383 17084 ft 399 kts 248°
2026-05-05 02:13 34.35419 133.01255 16364 ft 398 kts 248°
2026-05-05 02:14 34.34421 132.98133 15674 ft 397 kts 248°
2026-05-05 02:14 34.33422 132.95015 14979 ft 396 kts 248°
2026-05-05 02:14 34.32405 132.91993 14312 ft 385 kts 242°
2026-05-05 02:14 34.30803 132.89420 13627 ft 383 kts 221°
2026-05-05 02:15 34.28620 132.87599 12982 ft 381 kts 206°
2026-05-05 02:15 34.26145 132.86511 12366 ft 378 kts 194°
2026-05-05 02:15 34.23602 132.85733 11757 ft 376 kts 194°
2026-05-05 02:15 34.21922 132.85203 11347 ft 376 kts 194°
2026-05-05 02:16 34.18571 132.84095 10935 ft 364 kts 195°
2026-05-05 02:16 34.16976 132.83559 10834 ft 356 kts 195°
2026-05-05 02:16 34.14630 132.82781 10664 ft 344 kts 195°
2026-05-05 02:16 34.12361 132.82033 10520 ft 332 kts 195°
2026-05-05 02:17 34.10183 132.81315 10319 ft 315 kts 194°
2026-05-05 02:17 34.08169 132.80540 10074 ft 294 kts 206°
2026-05-05 02:17 34.06594 132.79068 9467 ft 288 kts 230°
2026-05-05 02:17 34.05554 132.77012 8747 ft 286 kts 241°
2026-05-05 02:18 34.04611 132.74911 8049 ft 283 kts 240°
2026-05-05 02:18 34.03664 132.72840 7308 ft 280 kts 240°
2026-05-05 02:18 34.02727 132.70798 6602 ft 276 kts 240°
2026-05-05 02:18 34.01802 132.68785 5853 ft 272 kts 239°
2026-05-05 02:19 34.00643 132.67052 5209 ft 261 kts 212°
2026-05-05 02:19 33.99092 132.66162 5033 ft 235 kts 200°
2026-05-05 02:19 33.97653 132.65422 4865 ft 215 kts 201°
2026-05-05 02:19 33.96363 132.64741 4681 ft 190 kts 201°
2026-05-05 02:20 33.95205 132.64132 4237 ft 177 kts 200°
2026-05-05 02:20 33.94082 132.63548 3621 ft 176 kts 200°
2026-05-05 02:20 33.92962 132.62967 2983 ft 178 kts 202°
2026-05-05 02:20 33.91819 132.62424 2442 ft 174 kts 196°
2026-05-05 02:21 33.90647 132.62201 1918 ft 168 kts 180°
2026-05-05 02:21 33.89511 132.62369 1684 ft 168 kts 168°
2026-05-05 02:21 33.88402 132.62820 1431 ft 165 kts 156°
2026-05-05 02:21 33.87480 132.63495 1225 ft 146 kts 142°
2026-05-05 02:22 33.86764 132.64285 1098 ft 137 kts 134°
2026-05-05 02:22 33.86138 132.65209 852 ft 146 kts 127°
2026-05-05 02:22 33.85508 132.66106 628 ft 135 kts 130°
2026-05-05 02:22 33.84855 132.66968 509 ft 144 kts 130°
2026-05-05 02:23 33.84214 132.67861 315 ft 142 kts 129°
2026-05-05 02:23 33.83593 132.68743 126 ft 135 kts 129°
2026-05-05 02:23 33.82994 132.69583 29 ft 121 kts 131°
2026-05-05 02:23 33.82641 132.70081 27 ft 22 kts 130°
2026-05-05 02:24 33.82580 132.70184 27 ft 9 kts 109°
2026-05-05 02:24 33.82583 132.70214 27 ft 3 kts 72°
2026-05-05 02:24 33.82623 132.70275 29 ft 0 kts 39°
2026-05-05 02:26 33.82646 132.70295 29 ft 8 kts 29°
2026-05-05 02:26 33.82720 132.70274 29 ft 14 kts 337°
2026-05-05 02:27 33.82762 132.70288 29 ft 4 kts 43°
2026-05-05 02:27 33.82797 132.70326 30 ft 7 kts 41°
2026-05-05 02:27 33.82829 132.70360 29 ft 0 kts 41°
2026-05-05 02:27 33.82834 132.70365 29 ft 1 kts 41°